Regional Weather Roundup
Issued by NWS Sioux Falls, SD

Home | Current Version | Previous Version | Text Only | Print | Product List | Glossary Off
Versions: 1 2 3 4 5 6 7 8 9 10 11 12 13 14 15 16 17 18 19 20 21 22 23 24 25 26 27 28 29 30 31 32 33 34 35 36 37 38 39 40 41 42 43 44 45 46 47 48 49 50

000
ASUS43 KFSD 271202
RWRFSD

WEATHER ROUNDUP FOR SE SOUTH DAKOTA/SW MINNESOTA/NW IOWA
NATIONAL WEATHER SERVICE SIOUX FALLS SD
600 AM CST MON FEB 27 2017

NOTE: "FAIR" INDICATES FEW OR NO CLOUDS BELOW 12,000 FEET WITH NO
SIGNIFICANT WEATHER AND OR OBSTRUCTIONS TO VISIBILITY.


SDZ038>040-050-052>070-271300-
SOUTHEAST SOUTH DAKOTA

CITY           SKY/WX    TMP DP  RH WIND       PRES   REMARKS
BROOKINGS      CLEAR     20  17  88 SE6       29.85F WCI  12
CHAMBERLAIN    CLOUDY    20  15  80 S3        29.83S
6HR MIN TEMP:  20; 6HR MAX TEMP:  28;

HURON          CLEAR     20  17  88 S7        29.84F WCI  11
6HR MIN TEMP:  19; 6HR MAX TEMP:  27;

MADISON        FAIR      19  19 100 S9        29.86S WCI   9
MITCHELL       CLEAR     21  16  81 S6        29.87F WCI  13
6HR MIN TEMP:  21; 6HR MAX TEMP:  28;

SIOUX FALLS    CLOUDY    24  19  81 S6        29.90R WCI  17
6HR MIN TEMP:  23; 6HR MAX TEMP:  28;

WINNER         FAIR      23  12  62 SW16      29.80S WCI  10
YANKTON        CLOUDY    18  10  73 E5        29.90R WCI  11
$$

MNZ071-072-080-081-089-090-097-098-271300-
SOUTHWEST MINNESOTA

CITY           SKY/WX    TMP DP  RH WIND       PRES   REMARKS
FAIRMONT       CLEAR     16  13  88 SW8       29.96R WCI   5
JACKSON        CLEAR     27  19  74 S10       29.93S WCI  17
LUVERNE        CLOUDY    21  19  93 CALM      29.91S
MARSHALL       CLEAR     28  20  71 SW12      29.87S WCI  18
6HR MIN TEMP:  28; 6HR MAX TEMP:  32;

MONTEVIDEO     CLEAR     25  19  80 SW3       29.89F
PIPESTONE      CLEAR     23  18  80 SE5       29.88S WCI  17
REDWOOD FALLS  CLEAR     26  20  77 SW6       29.90R WCI  19
TRACY          CLEAR     28  23  79 SW16      29.89R WCI  17
WINDOM         CLEAR     27  21  80 S9        29.92R WCI  17
WORTHINGTON    CLEAR     25  21  85 S12       29.92R WCI  14
$$

IAZ001>003-012>014-020>022-031-032-NEZ013-014-SDZ071-271300-
NORTHWEST IOWA

CITY           SKY/WX    TMP DP  RH WIND       PRES   REMARKS
CHEROKEE       CLEAR     10   9  95 CALM      29.96S
DENISON        CLEAR     16  16 100 CALM      29.96S
ESTHERVILLE    CLEAR     13  12  96 S10       29.95R WCI   0
LE MARS        CLEAR     21  18  86 S7        29.95S WCI  13
SHELDON        CLEAR     21  21 100 SE6       29.91S WCI  14
SIOUX CITY     CLEAR     17  14  88 E9        29.96S WCI   6
6HR MIN TEMP:  16; 6HR MAX TEMP:  22;

SPENCER        CLEAR     16  13  88 SE3       29.95S
6HR MIN TEMP:  15; 6HR MAX TEMP:  21;

STORM LAKE     CLEAR     19  16  86 S13       29.95S WCI   7
$$

ABBREVIATIONS USED IN REMARKS
   TC - TEMPERATURE IN CELSIUS
  WCI - WIND CHILL INDEX
   HX - HEAT INDEX
  VSB - VISIBILITY





USA.gov is the U.S. government's official web portal to all federal, state and local government web resources and services.